Location: Brookfield Center
(41.2406°N, 80.5579°W)
Time: 19:16:30
(UTC+00:00)

DELTA 2 R/B (1) - Pass Details

Date: 18 January 2020
Orbit: 791 x 802 km, 39.6° (Epoch: 16 February)

Event Time Altitude Azimuth Distance (km) Brightness Sun altitude
Rises 00:57:51 0° 253° (WSW) 3,292 7.9 -29.3°
Reaches altitude 10° 01:00:20 10° 251° (WSW) 2,364 6.9 -29.8°
Enters shadow 01:04:46 54° 225° (SW) 968 4.1 -30.6°
